Total_Precipitation_Accumulation
0.01 0.01 0.02 0.03 0.04 0.03 0.05 0.07 0.10 0.13 0.12 0.15 0.28 0.55 0.80 0.90 1.17 1.13 1.16 1.32 1.48 1.61 1.91 2.34 2.65 3.21 3.81 4.20 4.58 4.74 4.76 4.68 4.51 4.14 3.82 3.58 3.34 3.13 2.87 2.69 2.61 2.50 2.39 2.56
0.01 0.03 0.03 0.02 0.03 0.05 0.06 0.08 0.10 0.15 0.16 0.21 0.39 0.62 0.91 0.92 0.99 1.04 0.96 1.00 1.20 1.56 1.81 2.34 2.65 2.87 3.33 3.84 4.30 4.60 4.75 4.65 4.27 3.90 3.70 3.58 3.51 3.11 2.81 2.77 2.87 2.72 2.72 2.75
0.02 0.03 0.03 0.03 0.03 0.05 0.08 0.09 0.10 0.11 0.14 0.28 0.44 0.85 1.10 0.99 0.93 0.95 0.94 0.99 1.17 1.64 2.08 2.34 2.54 2.70 2.99 3.38 3.69 3.81 3.97 3.94 3.79 3.82 3.83 3.76 3.73 3.29 3.18 3.17 3.15 2.95 2.95 2.96
0.02 0.02 0.03 0.04 0.06 0.06 0.10 0.08 0.07 0.08 0.16 0.37 0.46 1.01 1.39 1.19 1.04 1.08 1.13 1.08 1.35 1.68 1.72 1.87 2.19 2.51 2.69 2.92 3.27 3.50 3.56 3.52 3.43 3.54 3.59 3.47 3.27 3.11 3.23 3.52 3.47 3.19 2.97 2.81
0.03 0.03 0.04 0.05 0.05 0.06 0.09 0.08 0.08 0.11 0.17 0.35 0.46 0.78 1.30 1.28 1.26 1.15 1.17 1.28 1.49 1.52 1.46 1.57 1.78 2.10 2.22 2.53 2.82 3.07 3.33 3.43 3.38 3.43 3.38 3.40 3.26 3.26 3.30 3.28 3.29 3.09 2.88 2.54
0.04 0.05 0.04 0.04 0.04 0.05 0.07 0.08 0.14 0.21 0.33 0.68 0.56 0.60 1.06 1.21 1.04 0.98 1.08 1.11 1.30 1.31 1.31 1.50 1.66 1.89 2.02 2.17 2.29 2.43 2.65 2.93 3.10 3.16 3.14 3.17 3.13 3.11 3.04 2.94 2.82 2.63 2.47 2.21
0.09 0.10 0.08 0.05 0.06 0.07 0.07 0.12 0.45 0.80 1.02 1.07 0.59 0.63 1.08 0.95 0.75 0.76 0.95 1.00 1.06 1.04 1.02 1.24 1.37 1.49 1.63 1.75 1.86 1.99 2.18 2.52 2.69 2.69 2.68 2.80 2.86 2.87 2.79 2.75 2.60 2.39 2.16 1.88
0.17 0.22 0.12 0.08 0.08 0.08 0.09 0.12 0.39 0.69 0.81 0.87 0.71 1.05 1.48 0.99 0.77 0.81 0.86 0.86 0.85 0.82 0.79 0.95 1.17 1.38 1.44 1.47 1.59 1.74 1.97 2.20 2.31 2.26 2.39 2.61 2.68 2.78 2.66 2.69 2.45 2.20 2.00 1.89
0.11 0.11 0.08 0.08 0.11 0.11 0.10 0.10 0.16 0.32 0.41 0.66 0.91 1.18 1.22 0.76 0.67 0.75 0.77 0.79 0.90 0.85 0.78 0.85 0.94 1.11 1.16 1.21 1.33 1.48 1.84 2.12 2.24 2.27 2.41 2.51 2.58 2.56 2.47 2.39 2.22 2.02 2.02 1.96
0.04 0.07 0.09 0.08 0.09 0.11 0.11 0.12 0.18 0.25 0.43 0.67 0.89 1.19 1.31 0.93 0.75 0.55 0.50 0.55 0.56 0.56 0.57 0.66 0.71 0.81 0.93 1.13 1.39 1.54 1.68 1.98 2.10 2.12 2.21 2.24 2.41 2.36 2.25 2.18 2.01 1.86 1.77 1.81
0.04 0.04 0.07 0.09 0.12 0.13 0.13 0.13 0.15 0.19 0.26 0.46 0.90 1.14 0.90 0.74 0.61 0.56 0.53 0.58 0.50 0.45 0.47 0.54 0.69 0.81 0.98 1.14 1.31 1.38 1.43 1.59 1.73 1.83 2.02 2.01 2.00 2.11 2.17 2.04 1.82 1.74 1.73 1.76
0.04 0.04 0.06 0.14 0.19 0.16 0.15 0.13 0.14 0.18 0.19 0.29 0.52 0.75 0.58 0.64 0.63 0.54 0.56 0.63 0.63 0.59 0.54 0.60 0.79 0.95 1.05 1.19 1.22 1.22 1.26 1.40 1.55 1.73 1.92 2.00 2.01 2.05 2.06 1.94 1.76 1.70 1.73 1.80
0.05 0.06 0.11 0.29 0.40 0.27 0.17 0.13 0.13 0.15 0.13 0.21 0.43 0.68 0.47 0.44 0.54 0.68 0.92 1.09 0.89 0.71 0.66 0.75 0.86 0.90 0.91 1.01 1.12 1.10 1.08 1.23 1.41 1.62 1.96 2.12 2.13 2.07 1.99 1.82 1.62 1.57 1.62 1.74
0.08 0.06 0.11 0.31 0.43 0.36 0.26 0.17 0.13 0.11 0.14 0.18 0.27 0.54 0.50 0.49 0.55 0.71 0.89 0.83 0.82 0.77 0.72 0.83 0.85 0.93 0.90 0.87 0.96 0.95 0.99 1.09 1.32 1.51 1.72 1.83 1.74 1.70 1.71 1.63 1.53 1.48 1.52 1.60
0.13 0.08 0.07 0.12 0.22 0.24 0.24 0.23 0.19 0.15 0.12 0.22 0.26 0.39 0.48 0.52 0.63 0.80 0.96 0.96 0.90 0.74 0.66 0.73 0.74 0.78 0.81 0.82 0.90 0.85 0.85 0.90 1.04 1.22 1.33 1.47 1.48 1.46 1.46 1.51 1.55 1.58 1.66 1.66
0.19 0.19 0.14 0.16 0.19 0.25 0.28 0.26 0.19 0.14 0.12 0.16 0.25 0.39 0.52 0.59 0.68 0.77 0.74 0.68 0.61 0.56 0.47 0.45 0.62 0.71 0.67 0.67 0.71 0.67 0.72 0.85 0.99 1.09 1.19 1.39 1.53 1.56 1.57 1.60 1.69 1.73 1.73 1.74
0.25 0.28 0.27 0.26 0.25 0.25 0.34 0.33 0.24 0.15 0.14 0.20 0.33 0.49 0.66 0.56 0.59 0.67 0.65 0.63 0.59 0.58 0.44 0.40 0.49 0.64 0.60 0.59 0.61 0.70 0.83 0.96 1.08 1.22 1.35 1.53 1.64 1.73 1.74 1.70 1.80 1.78 1.79 1.84
0.41 0.42 0.34 0.32 0.44 0.52 0.38 0.30 0.29 0.29 0.26 0.28 0.40 0.42 0.57 0.57 0.63 0.75 0.74 0.73 0.58 0.52 0.45 0.45 0.46 0.49 0.52 0.57 0.64 0.79 1.06 1.28 1.32 1.47 1.65 1.76 1.86 1.82 1.80 1.80 1.82 1.89 1.97 2.00
0.34 0.51 0.48 0.48 0.62 0.53 0.46 0.32 0.36 0.41 0.54 0.56 0.64 0.61 0.56 0.56 0.68 0.77 0.66 0.59 0.60 0.50 0.46 0.49 0.55 0.57 0.63 0.65 0.69 0.90 1.12 1.37 1.51 1.57 1.70 1.87 1.97 2.00 2.02 2.04 2.00 2.05 2.13 2.09
0.36 0.51 0.63 0.60 0.75 0.74 0.62 0.48 0.47 0.59 1.03 0.86 0.79 0.81 0.69 0.65 0.80 0.89 0.82 0.74 0.67 0.60 0.57 0.56 0.61 0.73 0.86 0.92 0.96 1.10 1.21 1.35 1.53 1.61 1.73 1.91 2.14 2.20 2.22 2.36 2.43 2.35 2.31 2.17
0.65 0.73 0.76 0.75 0.81 0.88 0.75 0.68 0.72 1.12 1.40 1.08 0.91 0.87 0.85 0.96 0.98 0.93 0.83 0.83 0.77 0.65 0.67 0.67 0.71 0.85 1.03 1.16 1.22 1.32 1.45 1.55 1.57 1.66 1.79 1.99 2.17 2.26 2.34 2.49 2.56 2.52 2.46 2.43
0.85 0.91 0.90 0.91 1.09 1.26 0.87 0.84 1.24 1.51 1.26 1.25 1.22 1.13 1.02 1.00 0.96 0.92 0.83 0.82 0.77 0.74 0.78 0.80 0.87 1.02 1.22 1.39 1.35 1.41 1.48 1.52 1.59 1.60 1.71 1.84 2.01 2.04 2.13 2.39 2.47 2.52 2.55 2.49
0.92 1.02 1.09 1.21 1.33 1.23 1.02 1.10 1.27 1.39 1.55 1.46 1.35 1.35 1.16 1.12 1.03 0.94 0.86 0.83 0.80 0.77 0.83 0.86 0.93 1.13 1.37 1.53 1.55 1.61 1.51 1.58 1.63 1.65 1.78 1.92 1.99 2.05 2.16 2.26 2.28 2.35 2.43 2.38
1.09 0.95 1.14 1.38 1.42 1.34 1.20 1.07 1.00 1.13 1.24 1.23 1.23 1.23 1.19 1.15 1.09 1.00 0.89 0.82 0.82 0.82 0.78 0.83 0.92 1.01 1.11 1.31 1.48 1.58 1.64 1.69 1.70 1.72 1.77 1.85 1.96 1.97 2.01 2.14 2.23 2.34 2.44 2.51
1.28 1.13 1.35 1.63 1.54 1.42 1.42 1.30 1.18 1.26 1.33 1.24 1.18 1.15 1.16 1.13 1.08 0.94 0.90 0.89 0.86 0.85 0.81 0.83 0.91 0.92 0.99 1.08 1.20 1.29 1.41 1.52 1.57 1.60 1.66 1.71 1.75 1.83 1.92 1.96 2.04 2.06 2.16 2.18
1.38 1.35 1.65 1.98 1.73 1.57 1.54 1.41 1.29 1.36 1.33 1.40 1.49 1.44 1.22 1.09 1.17 1.09 0.97 0.88 0.86 0.88 0.88 0.89 0.90 0.88 0.91 0.98 1.13 1.25 1.36 1.48 1.60 1.67 1.70 1.63 1.58 1.65 1.70 1.74 1.73 1.75 1.70 1.72